LYSAHORA Weather Reports


time (UTC)temp
F
wind
direction
speed
knots
gust
knots
rain 1hr
in
rain 24hr
in
rain mn
in
humidity
%
barometer
mb
20260905192640 50 310 17.4 0.0 0.00 0.00 0.00 71
20260905182228 50 300 17.4 0.0 0.00 0.00 0.00 76
20260905172305 50 310 15.6 26.9 0.00 0.00 0.00 71
20260905162632 55 300 17.4 0.0 0.00 0.00 0.00 66
20260905152323 52 300 15.6 0.0 0.00 0.00 0.00 76
20260905142109 54 290 13.9 0.0 0.00 0.00 0.00 76
20260905132417 54 290 10.4 0.0 0.00 0.00 0.00 87
20260905122308 52 280 12.2 0.0 0.00 0.00 0.00 93
20260905112319 50 280 13.9 0.0 0.00 0.00 0.00 93
20260905102653 50 280 15.6 0.0 0.00 0.00 0.00 93
20260905092259 48 280 15.6 0.0 0.00 0.00 0.00 99
20260905082251 46 280 7.8 0.0 0.00 0.00 0.00 99
20260905072551 46 300 13.9 0.0 0.00 0.00 0.00 99
20260905062253 46 300 13.9 0.0 0.00 0.00 0.00 99
20260905052248 48 300 17.4 26.9 0.00 0.00 0.00 93
20260905042652 50 320 12.2 0.0 0.00 0.00 0.00 93
20260905032251 52 340 15.6 0.0 0.00 0.00 0.00 81
20260905022249 50 360 19.1 28.7 0.00 0.00 0.00 93
20260905012608 52 40 10.4 0.0 0.00 0.00 0.00 93
20260905002306 55 300 12.2 0.0 0.00 0.00 0.00 82
20260904232337 63 270 7.8 25.2 0.00 0.00 0.00 63
20260904222706 63 270 7.8 17.4 0.00 0.00 0.00 63
20260904212249 63 280 6.1 15.6 0.00 0.00 0.00 59
20260904202248 63 360 7.8 19.1 0.00 0.00 0.00 63